Jendouba, Tunisia

11:55 PM CET on November 17, 2019 (GMT +0100)
Jendouba

Weather History for DTTN - October, 2019

Change the Weather History Date:

Monday, October 21, 2019

  Actual Average (WUND) Record (WUND)
Temperature  
Mean Temperature 73 °F -  
Max Temperature 89 °F 72 °F - (-1)
Min Temperature 57 °F 49 °F - (-1)
Cooling Degree Days 8    
Growing Degree Days 23 (Base 50)    
Moisture  
Dew Point 53 °F    
Average Humidity 46    
Maximum Humidity 65    
Minimum Humidity 23    
Precipitation  
Precipitation 0.00 in 0.06 in - ()
Sea Level Pressure  
Sea Level Pressure 30.04 in    
Wind  
Wind Speed 3 mph ()    
Max Wind Speed 12 mph    
Max Gust Speed -    
Visibility 6.1 miles    
Events      
Averages and records for this station are not official NWS values.
T = Trace of Precipitation, MM = Missing Value Source: Averaged Metar Reports

Daily Weather History Graph

Daily Weather History Graph

Search for Another Location

Airport or City:

Astronomy

Oct. 21, 2019 Rise Set
Actual Time 6:37 AM CET 5:41 PM CET
Civil Twilight 6:10 AM CET 6:07 PM CET
Nautical Twilight 5:40 AM CET 6:37 PM CET
Astronomical Twilight 5:10 AM CET 7:07 PM CET
Moon 11:43 PM CET (10/21) 1:35 PM CET (10/21)
Length of Visible Light 11h 56m
Length of Day
11h 04m
Waning Gibbous, 51% of the Moon is Illuminated
Oct 21
Waning Gibbous
Oct 21
Last Quarter
Oct 28
New
Nov 4
First Quarter
Nov 12
Full

Hourly Weather History & Observations

Time (CET) Temp. Heat Index Dew Point Humidity Pressure Visibility Wind Dir Wind Speed Gust Speed Precip Events Conditions
12:00 AM 69.8 °F - 46.4 °F 43% 30.04 in 5.0 mi Calm Calm - N/A   Partly Cloudy
1:00 AM 66 °F - 44 °F 34% 30.03 in 5 mi SSW 3.5 mph - -   Scattered Clouds
1:00 AM 66.2 °F - 44.6 °F 46% 30.04 in 5.0 mi SSW 3.5 mph - N/A   Partly Cloudy
4:00 AM 62.6 °F - 44.6 °F 52% 30.04 in 5.0 mi Calm Calm - N/A   Partly Cloudy
5:00 AM 59.0 °F - 46.4 °F 63% 30.06 in 5.0 mi East 3.5 mph - N/A   Partly Cloudy
6:00 AM 59.0 °F - 44.6 °F 59% 30.06 in 5.0 mi Calm Calm - N/A   Partly Cloudy
7:00 AM 60 °F - 48 °F 54% 30.09 in 6 mi NNW 1.2 mph - -   Scattered Clouds
7:00 AM 60.8 °F - 48.2 °F 63% 30.06 in 6.2 mi Variable 1.2 mph - N/A   Partly Cloudy
8:00 AM 62.6 °F - 48.2 °F 59% 30.09 in 6.2 mi SSW 3.5 mph - N/A   Partly Cloudy
9:00 AM 71.6 °F - 50.0 °F 46% 30.09 in 6.2 mi Variable 1.2 mph - N/A   Scattered Clouds
10:00 AM 73 °F - 51 °F 34% 30.11 in 9 mi North 2.3 mph - -   Partly Cloudy
10:00 AM 73.4 °F - 50.0 °F 44% 30.09 in 6.2 mi Variable 2.3 mph - N/A   Scattered Clouds
12:00 PM 82.4 °F - 51.8 °F 35% 30.06 in 6.2 mi NE 4.6 mph - N/A   Scattered Clouds
1:00 PM 85 °F - 53 °F 23% 30.03 in 9 mi NE 5.8 mph - -   Partly Cloudy
1:00 PM 84.2 °F 82.8 °F 53.6 °F 35% 30.04 in 6.2 mi NE 5.8 mph - N/A   Scattered Clouds
3:00 PM 87.8 °F 86.1 °F 55.4 °F 33% 29.98 in 6.2 mi SE 8.1 mph - N/A   Scattered Clouds
4:00 PM 86 °F - 58 °F 28% 29.96 in 9 mi SE 11.5 mph - -   Partly Cloudy
4:00 PM 86.0 °F 84.9 °F 57.2 °F 37% 29.98 in 6.2 mi SE 11.5 mph - N/A   Scattered Clouds
5:00 PM 84.2 °F 83.8 °F 59.0 °F 42% 29.98 in 6.2 mi ESE 5.8 mph - N/A   Scattered Clouds
6:00 PM - - - N/A% 30.01 in 6.2 mi ESE 5.8 mph - N/A   Scattered Clouds
7:00 PM 81 °F - 61 °F 40% 30.01 in 7 mi East 8.1 mph - -   Partly Cloudy
7:00 PM 80.6 °F 81.5 °F 60.8 °F 51% 30.04 in 6.2 mi East 9.2 mph - N/A   Scattered Clouds
8:00 PM 80.6 °F 81.5 °F 60.8 °F 51% 30.04 in 6.2 mi East 8.1 mph - N/A   Scattered Clouds
9:00 PM 77.0 °F - 59.0 °F 54% 30.06 in 6.2 mi ESE 4.6 mph - N/A   Partly Cloudy
10:00 PM 76 °F - 58 °F 44% 30.05 in 5 mi East 5.8 mph - -   Scattered Clouds
10:00 PM 77.0 °F - 59.0 °F 54% 30.06 in 5.0 mi East 5.8 mph - N/A   Partly Cloudy
11:00 PM 73.4 °F - 60.8 °F 65% 30.06 in 5.0 mi NNE 5.8 mph - N/A   Partly Cloudy